Time,TemperatureF,DewpointF,PressureIn,WindDirection,WindDirectionDegrees,WindSpeedMPH,WindSpeedGustMPH,Humidity,HourlyPrecipIn,Conditions,Clouds,dailyrainin,SoftwareType,DateUTC
2013-10-08 00:00:00,56.2,50.4,29.98,West,276,2.0,2.0,81,0.00,,,0.00,Wunderground v.1.15,2013-10-08 04:00:00,
2013-10-08 00:05:00,55.9,50.2,29.98,WSW,251,2.0,2.0,81,0.00,,,0.00,Wunderground v.1.15,2013-10-08 04:05:00,
2013-10-08 00:10:00,55.6,49.9,29.98,WSW,237,2.0,2.0,81,0.00,,,0.00,Wunderground v.1.15,2013-10-08 04:10:00,
2013-10-08 00:15:00,55.4,49.7,29.99,WSW,239,2.0,3.0,81,0.00,,,0.00,Wunderground v.1.15,2013-10-08 04:15:00,
2013-10-08 00:20:00,55.1,49.7,29.98,WSW,240,2.0,5.0,82,0.00,,,0.00,Wunderground v.1.15,2013-10-08 04:20:00,
2013-10-08 00:25:00,54.7,49.3,29.98,WSW,238,2.0,5.0,82,0.00,,,0.00,Wunderground v.1.15,2013-10-08 04:25:00,
2013-10-08 00:35:00,54.2,49.1,29.99,SW,232,1.0,2.0,83,0.00,,,0.00,Wunderground v.1.15,2013-10-08 04:35:00,
2013-10-08 00:40:00,54.0,49.0,30.00,SW,232,0.0,0.0,83,0.00,,,0.00,Wunderground v.1.15,2013-10-08 04:40:00,
2013-10-08 00:45:00,53.7,48.7,30.00,SW,232,0.0,0.0,83,0.00,,,0.00,Wunderground v.1.15,2013-10-08 04:45:00,
2013-10-08 00:50:00,53.5,48.5,29.98,West,269,1.0,3.0,83,0.00,,,0.00,Wunderground v.1.15,2013-10-08 04:50:00,
2013-10-08 00:55:00,53.5,48.5,29.99,WSW,246,3.0,3.0,83,0.00,,,0.00,Wunderground v.1.15,2013-10-08 04:55:00,
2013-10-08 01:00:00,53.3,48.3,30.00,WSW,244,3.0,3.0,83,0.00,,,0.00,Wunderground v.1.15,2013-10-08 05:00:00,
2013-10-08 01:10:00,53.2,48.2,30.00,SW,219,2.0,2.0,83,0.00,,,0.00,Wunderground v.1.15,2013-10-08 05:10:00,
2013-10-08 01:15:00,53.1,48.1,30.00,SSW,213,2.0,2.0,83,0.00,,,0.00,Wunderground v.1.15,2013-10-08 05:15:00,
2013-10-08 01:20:00,53.0,48.0,30.00,SW,229,3.0,3.0,83,0.00,,,0.00,Wunderground v.1.15,2013-10-08 05:20:00,
2013-10-08 01:25:00,52.9,47.6,30.00,West,280,2.0,3.0,82,0.00,,,0.00,Wunderground v.1.15,2013-10-08 05:25:00,
2013-10-08 01:30:00,52.9,47.6,30.00,SW,223,2.0,3.0,82,0.00,,,0.00,Wunderground v.1.15,2013-10-08 05:30:00,
2013-10-08 01:35:00,53.0,47.7,30.00,SSW,196,2.0,3.0,82,0.00,,,0.00,Wunderground v.1.15,2013-10-08 05:35:00,
2013-10-08 01:40:00,52.9,47.6,30.00,WSW,257,2.0,2.0,82,0.00,,,0.00,Wunderground v.1.15,2013-10-08 05:40:00,
2013-10-08 01:50:00,52.9,46.9,30.01,SW,222,1.0,1.0,80,0.00,,,0.00,Wunderground v.1.15,2013-10-08 05:50:00,
2013-10-08 01:55:00,52.9,46.6,30.01,SW,225,1.0,1.0,79,0.00,,,0.00,Wunderground v.1.15,2013-10-08 05:55:00,
2013-10-08 02:00:00,52.9,46.9,30.01,SSW,199,2.0,2.0,80,0.00,,,0.00,Wunderground v.1.15,2013-10-08 06:00:00,
2013-10-08 02:05:00,53.0,46.7,30.01,WSW,244,2.0,3.0,79,0.00,,,0.00,Wunderground v.1.15,2013-10-08 06:05:00,
2013-10-08 02:10:00,53.0,46.7,30.01,South,188,2.0,2.0,79,0.00,,,0.00,Wunderground v.1.15,2013-10-08 06:10:00,
2013-10-08 02:15:00,52.9,46.2,30.01,SW,232,3.0,3.0,78,0.00,,,0.00,Wunderground v.1.15,2013-10-08 06:15:00,
2013-10-08 02:20:00,52.8,46.5,30.01,WSW,256,3.0,3.0,79,0.00,,,0.00,Wunderground v.1.15,2013-10-08 06:20:00,
2013-10-08 02:25:00,52.6,46.3,30.01,SSW,199,2.0,3.0,79,0.00,,,0.00,Wunderground v.1.15,2013-10-08 06:25:00,
2013-10-08 02:30:00,52.5,46.2,30.01,SW,225,2.0,2.0,79,0.00,,,0.00,Wunderground v.1.15,2013-10-08 06:30:00,
2013-10-08 02:35:00,52.3,46.0,30.01,SW,219,2.0,3.0,79,0.00,,,0.00,Wunderground v.1.15,2013-10-08 06:35:00,
2013-10-08 02:40:00,52.2,46.2,30.01,SW,232,1.0,1.0,80,0.00,,,0.00,Wunderground v.1.15,2013-10-08 06:40:00,
2013-10-08 02:45:00,52.1,46.4,30.01,WSW,246,1.0,5.0,81,0.00,,,0.00,Wunderground v.1.15,2013-10-08 06:45:00,
2013-10-08 02:50:00,51.9,46.3,30.01,WSW,240,2.0,6.0,81,0.00,,,0.00,Wunderground v.1.15,2013-10-08 06:50:00,
2013-10-08 02:55:00,52.1,46.1,30.01,WSW,252,2.0,6.0,80,0.00,,,0.00,Wunderground v.1.15,2013-10-08 06:55:00,
2013-10-08 03:00:00,52.0,46.0,30.01,SW,217,2.0,2.0,80,0.00,,,0.00,Wunderground v.1.15,2013-10-08 07:00:00,
2013-10-08 03:10:00,52.1,45.8,30.02,SW,232,3.0,5.0,79,0.00,,,0.00,Wunderground v.1.15,2013-10-08 07:10:00,
2013-10-08 03:15:00,52.2,45.9,30.02,SW,217,4.0,5.0,79,0.00,,,0.00,Wunderground v.1.15,2013-10-08 07:15:00,
2013-10-08 03:20:00,52.2,45.9,30.02,SW,226,4.0,5.0,79,0.00,,,0.00,Wunderground v.1.15,2013-10-08 07:20:00,
2013-10-08 03:30:00,52.1,45.8,30.03,SW,219,3.0,3.0,79,0.00,,,0.00,Wunderground v.1.15,2013-10-08 07:30:00,
2013-10-08 03:35:00,51.9,45.6,30.03,SW,219,3.0,4.0,79,0.00,,,0.00,Wunderground v.1.15,2013-10-08 07:35:00,
2013-10-08 03:45:00,51.7,45.7,30.04,SW,234,2.0,4.0,80,0.00,,,0.00,Wunderground v.1.15,2013-10-08 07:45:00,
2013-10-08 03:55:00,51.4,45.4,30.04,SW,228,2.0,2.0,80,0.00,,,0.00,Wunderground v.1.15,2013-10-08 07:55:00,
2013-10-08 04:00:00,51.4,45.1,30.05,SW,227,2.0,2.0,79,0.00,,,0.00,Wunderground v.1.15,2013-10-08 08:00:00,
2013-10-08 04:05:00,51.5,44.9,30.06,SW,225,2.0,2.0,78,0.00,,,0.00,Wunderground v.1.15,2013-10-08 08:05:00,
2013-10-08 04:10:00,51.5,44.9,30.06,SW,229,2.0,2.0,78,0.00,,,0.00,Wunderground v.1.15,2013-10-08 08:10:00,
2013-10-08 04:15:00,51.5,45.2,30.07,SSW,194,3.0,5.0,79,0.00,,,0.00,Wunderground v.1.15,2013-10-08 08:15:00,
2013-10-08 04:20:00,51.4,45.4,30.06,SW,228,4.0,4.0,80,0.00,,,0.00,Wunderground v.1.15,2013-10-08 08:20:00,
2013-10-08 04:25:00,51.1,45.1,30.06,SW,229,4.0,10.0,80,0.00,,,0.00,Wunderground v.1.15,2013-10-08 08:25:00,
2013-10-08 04:30:00,51.0,44.7,30.07,SW,234,4.0,4.0,79,0.00,,,0.00,Wunderground v.1.15,2013-10-08 08:30:00,
2013-10-08 04:35:00,51.3,44.7,30.07,WSW,250,5.0,6.0,78,0.00,,,0.00,Wunderground v.1.15,2013-10-08 08:35:00,
2013-10-08 04:45:00,51.5,44.5,30.08,WSW,250,4.0,5.0,77,0.00,,,0.00,Wunderground v.1.15,2013-10-08 08:45:00,
2013-10-08 04:50:00,51.4,44.4,30.08,SSW,201,3.0,6.0,77,0.00,,,0.00,Wunderground v.1.15,2013-10-08 08:50:00,
2013-10-08 04:55:00,51.2,44.2,30.08,SSW,211,3.0,6.0,77,0.00,,,0.00,Wunderground v.1.15,2013-10-08 08:55:00,
2013-10-08 05:05:00,51.2,44.2,30.09,SW,233,3.0,3.0,77,0.00,,,0.00,Wunderground v.1.15,2013-10-08 09:05:00,
2013-10-08 05:10:00,51.2,44.2,30.09,SW,223,3.0,3.0,77,0.00,,,0.00,Wunderground v.1.15,2013-10-08 09:10:00,
2013-10-08 05:15:00,51.2,43.9,30.09,West,263,3.0,3.0,76,0.00,,,0.00,Wunderground v.1.15,2013-10-08 09:15:00,
2013-10-08 05:20:00,51.2,43.9,30.10,West,262,3.0,3.0,76,0.00,,,0.00,Wunderground v.1.15,2013-10-08 09:20:00,
2013-10-08 05:25:00,51.0,43.7,30.10,SW,228,2.0,3.0,76,0.00,,,0.00,Wunderground v.1.15,2013-10-08 09:25:00,
2013-10-08 05:30:00,50.9,43.9,30.10,WSW,245,2.0,2.0,77,0.00,,,0.00,Wunderground v.1.15,2013-10-08 09:30:00,
2013-10-08 05:35:00,50.8,43.8,30.10,SW,232,2.0,2.0,77,0.00,,,0.00,Wunderground v.1.15,2013-10-08 09:35:00,
2013-10-08 05:40:00,50.6,43.7,30.10,WSW,242,2.0,2.0,77,0.00,,,0.00,Wunderground v.1.15,2013-10-08 09:40:00,
2013-10-08 05:45:00,50.4,43.8,30.11,SW,218,3.0,5.0,78,0.00,,,0.00,Wunderground v.1.15,2013-10-08 09:45:00,
2013-10-08 05:55:00,50.3,43.0,30.11,WSW,252,4.0,5.0,76,0.00,,,0.00,Wunderground v.1.15,2013-10-08 09:55:00,
2013-10-08 06:00:00,50.2,42.9,30.11,SW,231,4.0,4.0,76,0.00,,,0.00,Wunderground v.1.15,2013-10-08 10:00:00,
2013-10-08 06:05:00,50.2,42.9,30.12,WSW,239,3.0,4.0,76,0.00,,,0.00,Wunderground v.1.15,2013-10-08 10:05:00,
2013-10-08 06:15:00,50.0,42.0,30.13,South,186,2.0,3.0,74,0.00,,,0.00,Wunderground v.1.15,2013-10-08 10:15:00,
2013-10-08 06:20:00,49.9,42.3,30.14,SW,232,1.0,1.0,75,0.00,,,0.00,Wunderground v.1.15,2013-10-08 10:20:00,
2013-10-08 06:25:00,49.7,42.1,30.15,SSW,207,0.0,1.0,75,0.00,,,0.00,Wunderground v.1.15,2013-10-08 10:25:00,
2013-10-08 06:30:00,49.3,42.1,30.15,NW,306,0.0,0.0,76,0.00,,,0.00,Wunderground v.1.15,2013-10-08 10:30:00,
2013-10-08 06:35:00,49.0,42.1,30.15,WNW,288,1.0,2.0,77,0.00,,,0.00,Wunderground v.1.15,2013-10-08 10:35:00,
2013-10-08 06:40:00,48.8,42.2,30.15,WNW,300,1.0,1.0,78,0.00,,,0.00,Wunderground v.1.15,2013-10-08 10:40:00,
2013-10-08 06:45:00,48.7,42.1,30.15,WNW,290,1.0,1.0,78,0.00,,,0.00,Wunderground v.1.15,2013-10-08 10:45:00,
2013-10-08 06:50:00,48.6,42.0,30.16,WNW,290,0.0,2.0,78,0.00,,,0.00,Wunderground v.1.15,2013-10-08 10:50:00,
2013-10-08 06:55:00,48.4,42.2,30.16,SW,223,0.0,2.0,79,0.00,,,0.00,Wunderground v.1.15,2013-10-08 10:55:00,
2013-10-08 07:00:00,48.2,42.3,30.17,SW,221,1.0,2.0,80,0.00,,,0.00,Wunderground v.1.15,2013-10-08 11:00:00,
2013-10-08 07:05:00,47.9,41.7,30.17,WNW,295,1.0,2.0,79,0.00,,,0.00,Wunderground v.1.15,2013-10-08 11:05:00,
2013-10-08 07:15:00,47.7,41.5,30.17,WSW,238,1.0,1.0,79,0.00,,,0.00,Wunderground v.1.15,2013-10-08 11:15:00,
2013-10-08 07:20:00,47.6,41.4,30.17,South,184,1.0,1.0,79,0.00,,,0.00,Wunderground v.1.15,2013-10-08 11:20:00,
2013-10-08 07:30:00,47.3,41.1,30.19,South,180,1.0,2.0,79,0.00,,,0.00,Wunderground v.1.15,2013-10-08 11:30:00,
2013-10-08 07:35:00,47.2,41.0,30.19,WSW,242,0.0,2.0,79,0.00,,,0.00,Wunderground v.1.15,2013-10-08 11:35:00,
2013-10-08 07:45:00,47.4,40.9,30.20,South,181,0.0,0.0,78,0.00,,,0.00,Wunderground v.1.15,2013-10-08 11:45:00,
2013-10-08 07:55:00,47.6,40.7,30.20,South,184,1.0,2.0,77,0.00,,,0.00,Wunderground v.1.15,2013-10-08 11:55:00,
2013-10-08 08:00:00,47.7,40.8,30.21,South,184,1.0,1.0,77,0.00,,,0.00,Wunderground v.1.15,2013-10-08 12:00:00,
2013-10-08 08:05:00,48.0,41.1,30.22,West,265,1.0,2.0,77,0.00,,,0.00,Wunderground v.1.15,2013-10-08 12:05:00,
2013-10-08 08:10:00,48.5,40.9,30.22,NNW,339,1.0,1.0,75,0.00,,,0.00,Wunderground v.1.15,2013-10-08 12:10:00,
2013-10-08 08:20:00,49.6,41.7,30.23,WNW,302,2.0,2.0,74,0.00,,,0.00,Wunderground v.1.15,2013-10-08 12:20:00,
2013-10-08 08:25:00,50.1,41.8,30.23,WNW,284,1.0,3.0,73,0.00,,,0.00,Wunderground v.1.15,2013-10-08 12:25:00,
2013-10-08 08:30:00,50.2,41.2,30.23,WSW,246,2.0,6.0,71,0.00,,,0.00,Wunderground v.1.15,2013-10-08 12:30:00,
2013-10-08 08:35:00,50.3,40.9,30.23,NW,315,3.0,6.0,70,0.00,,,0.00,Wunderground v.1.15,2013-10-08 12:35:00,
2013-10-08 08:40:00,50.2,40.8,30.24,North,350,3.0,3.0,70,0.00,,,0.00,Wunderground v.1.15,2013-10-08 12:40:00,
2013-10-08 08:45:00,50.3,41.3,30.24,NNW,329,4.0,4.0,71,0.00,,,0.00,Wunderground v.1.15,2013-10-08 12:45:00,
2013-10-08 08:50:00,50.3,40.9,30.24,NW,315,4.0,4.0,70,0.00,,,0.00,Wunderground v.1.15,2013-10-08 12:50:00,
2013-10-08 08:55:00,50.3,40.9,30.24,WNW,300,5.0,5.0,70,0.00,,,0.00,Wunderground v.1.15,2013-10-08 12:55:00,
2013-10-08 09:00:00,50.3,40.5,30.24,NW,315,5.0,5.0,69,0.00,,,0.00,Wunderground v.1.15,2013-10-08 13:00:00,
2013-10-08 09:05:00,50.3,40.9,30.25,NNW,329,6.0,6.0,70,0.00,,,0.00,Wunderground v.1.15,2013-10-08 13:05:00,
2013-10-08 09:10:00,50.3,40.9,30.25,WNW,290,5.0,6.0,70,0.00,,,0.00,Wunderground v.1.15,2013-10-08 13:10:00,
2013-10-08 09:15:00,50.4,40.6,30.26,West,275,4.0,7.0,69,0.00,,,0.00,Wunderground v.1.15,2013-10-08 13:15:00,
2013-10-08 09:20:00,50.5,40.7,30.26,NW,317,5.0,10.0,69,0.00,,,0.00,Wunderground v.1.15,2013-10-08 13:20:00,
2013-10-08 09:25:00,50.4,39.9,30.27,North,355,7.0,10.0,67,0.00,,,0.00,Wunderground v.1.15,2013-10-08 13:25:00,
2013-10-08 09:30:00,50.3,39.4,30.27,NW,308,8.0,8.0,66,0.00,,,0.00,Wunderground v.1.15,2013-10-08 13:30:00,
2013-10-08 09:35:00,50.4,40.2,30.28,NW,315,7.0,9.0,68,0.00,,,0.00,Wunderground v.1.15,2013-10-08 13:35:00,
2013-10-08 09:40:00,50.6,40.0,30.27,WNW,302,5.0,5.0,67,0.00,,,0.00,Wunderground v.1.15,2013-10-08 13:40:00,
2013-10-08 09:45:00,50.7,40.1,30.27,WNW,300,5.0,6.0,67,0.00,,,0.00,Wunderground v.1.15,2013-10-08 13:45:00,
2013-10-08 09:55:00,50.8,39.8,30.27,SW,234,5.0,6.0,66,0.00,,,0.00,Wunderground v.1.15,2013-10-08 13:55:00,
2013-10-08 10:00:00,51.2,39.8,30.28,North,355,4.0,12.0,65,0.00,,,0.00,Wunderground v.1.15,2013-10-08 14:00:00,
2013-10-08 10:05:00,51.4,40.8,30.28,North,350,4.0,12.0,67,0.00,,,0.00,Wunderground v.1.15,2013-10-08 14:05:00,
2013-10-08 10:10:00,51.5,39.7,30.28,WSW,245,6.0,6.0,64,0.00,,,0.00,Wunderground v.1.15,2013-10-08 14:10:00,
2013-10-08 10:15:00,51.6,40.2,30.28,West,266,6.0,10.0,65,0.00,,,0.00,Wunderground v.1.15,2013-10-08 14:15:00,
2013-10-08 10:20:00,51.6,40.2,30.28,WSW,244,6.0,7.0,65,0.00,,,0.00,Wunderground v.1.15,2013-10-08 14:20:00,
2013-10-08 10:30:00,51.5,38.9,30.28,WNW,289,5.0,5.0,62,0.00,,,0.00,Wunderground v.1.15,2013-10-08 14:30:00,
2013-10-08 10:40:00,51.7,38.7,30.28,NW,307,5.0,5.0,61,0.00,,,0.00,Wunderground v.1.15,2013-10-08 14:40:00,
2013-10-08 10:45:00,51.7,38.3,30.28,NNE,29,5.0,10.0,60,0.00,,,0.00,Wunderground v.1.15,2013-10-08 14:45:00,
2013-10-08 10:50:00,52.0,39.4,30.29,NW,325,5.0,5.0,62,0.00,,,0.00,Wunderground v.1.15,2013-10-08 14:50:00,
2013-10-08 10:55:00,52.3,39.2,30.30,NW,314,4.0,5.0,61,0.00,,,0.00,Wunderground v.1.15,2013-10-08 14:55:00,
2013-10-08 11:00:00,52.3,38.8,30.30,NW,323,4.0,4.0,60,0.00,,,0.00,Wunderground v.1.15,2013-10-08 15:00:00,
2013-10-08 11:05:00,52.6,39.1,30.31,NNW,333,4.0,4.0,60,0.00,,,0.00,Wunderground v.1.15,2013-10-08 15:05:00,
2013-10-08 11:10:00,52.7,39.2,30.30,West,275,3.0,3.0,60,0.00,,,0.00,Wunderground v.1.15,2013-10-08 15:10:00,
2013-10-08 11:20:00,53.0,39.5,30.31,WNW,303,3.0,3.0,60,0.00,,,0.00,Wunderground v.1.15,2013-10-08 15:20:00,
2013-10-08 11:25:00,53.1,39.1,30.31,NW,316,3.0,6.0,59,0.00,,,0.00,Wunderground v.1.15,2013-10-08 15:25:00,
2013-10-08 11:30:00,53.4,39.9,30.31,West,281,3.0,3.0,60,0.00,,,0.00,Wunderground v.1.15,2013-10-08 15:30:00,
2013-10-08 11:40:00,53.7,39.3,30.31,NNW,336,3.0,8.0,58,0.00,,,0.00,Wunderground v.1.15,2013-10-08 15:40:00,
2013-10-08 11:45:00,53.7,39.3,30.31,NW,324,3.0,8.0,58,0.00,,,0.00,Wunderground v.1.15,2013-10-08 15:45:00,
2013-10-08 11:50:00,53.9,38.1,30.31,NW,325,4.0,7.0,55,0.00,,,0.00,Wunderground v.1.15,2013-10-08 15:50:00,
2013-10-08 11:55:00,53.9,39.0,30.31,WNW,284,5.0,7.0,57,0.00,,,0.00,Wunderground v.1.15,2013-10-08 15:55:00,
2013-10-08 12:00:00,54.0,40.4,30.32,WNW,300,5.0,5.0,60,0.00,,,0.00,Wunderground v.1.15,2013-10-08 16:00:00,
2013-10-08 12:05:00,54.0,38.2,30.32,NNW,341,4.0,10.0,55,0.00,,,0.00,Wunderground v.1.15,2013-10-08 16:05:00,
2013-10-08 12:10:00,54.1,38.7,30.32,NW,306,4.0,4.0,56,0.00,,,0.00,Wunderground v.1.15,2013-10-08 16:10:00,
2013-10-08 12:15:00,54.2,40.2,30.32,WSW,240,4.0,4.0,59,0.00,,,0.00,Wunderground v.1.15,2013-10-08 16:15:00,
2013-10-08 12:20:00,54.6,39.7,30.33,WSW,248,3.0,3.0,57,0.00,,,0.00,Wunderground v.1.15,2013-10-08 16:20:00,
2013-10-08 12:25:00,54.8,38.9,30.33,WSW,239,3.0,6.0,55,0.00,,,0.00,Wunderground v.1.15,2013-10-08 16:25:00,
2013-10-08 12:30:00,55.0,39.6,30.32,NW,325,3.0,3.0,56,0.00,,,0.00,Wunderground v.1.15,2013-10-08 16:30:00,
2013-10-08 12:35:00,55.2,39.8,30.32,WNW,300,3.0,7.0,56,0.00,,,0.00,Wunderground v.1.15,2013-10-08 16:35:00,
2013-10-08 12:45:00,55.1,38.7,30.32,SW,227,3.0,3.0,54,0.00,,,0.00,Wunderground v.1.15,2013-10-08 16:45:00,
2013-10-08 12:55:00,55.1,39.2,30.32,West,268,4.0,11.0,55,0.00,,,0.00,Wunderground v.1.15,2013-10-08 16:55:00,
2013-10-08 13:00:00,55.1,39.2,30.32,SW,234,3.0,3.0,55,0.00,,,0.00,Wunderground v.1.15,2013-10-08 17:00:00,
2013-10-08 13:05:00,55.2,37.4,30.32,West,263,4.0,4.0,51,0.00,,,0.00,Wunderground v.1.15,2013-10-08 17:05:00,
2013-10-08 13:15:00,55.4,39.5,30.32,NW,304,4.0,4.0,55,0.00,,,0.00,Wunderground v.1.15,2013-10-08 17:15:00,
2013-10-08 13:20:00,55.4,38.5,30.32,North,360,4.0,6.0,53,0.00,,,0.00,Wunderground v.1.15,2013-10-08 17:20:00,
2013-10-08 13:25:00,55.4,37.6,30.32,West,269,5.0,6.0,51,0.00,,,0.00,Wunderground v.1.15,2013-10-08 17:25:00,
2013-10-08 13:35:00,55.8,39.4,30.32,WNW,297,4.0,5.0,54,0.00,,,0.00,Wunderground v.1.15,2013-10-08 17:35:00,
2013-10-08 13:40:00,56.3,39.9,30.32,North,355,3.0,3.0,54,0.00,,,0.00,Wunderground v.1.15,2013-10-08 17:40:00,
2013-10-08 13:50:00,56.8,40.3,30.32,WNW,300,2.0,4.0,54,0.00,,,0.00,Wunderground v.1.15,2013-10-08 17:50:00,
2013-10-08 13:55:00,56.9,39.9,30.33,North,355,3.0,6.0,53,0.00,,,0.00,Wunderground v.1.15,2013-10-08 17:55:00,
2013-10-08 14:00:00,56.8,40.3,30.33,WNW,296,3.0,3.0,54,0.00,,,0.00,Wunderground v.1.15,2013-10-08 18:00:00,
2013-10-08 14:10:00,57.3,41.3,30.33,NW,311,2.0,2.0,55,0.00,,,0.00,Wunderground v.1.15,2013-10-08 18:10:00,
2013-10-08 14:15:00,57.5,40.0,30.33,NNW,337,2.0,4.0,52,0.00,,,0.00,Wunderground v.1.15,2013-10-08 18:15:00,
2013-10-08 14:20:00,57.4,39.9,30.33,NNW,334,2.0,3.0,52,0.00,,,0.00,Wunderground v.1.15,2013-10-08 18:20:00,
2013-10-08 14:25:00,57.4,39.9,30.34,WSW,256,3.0,4.0,52,0.00,,,0.00,Wunderground v.1.15,2013-10-08 18:25:00,
2013-10-08 14:30:00,57.3,39.8,30.33,West,270,3.0,3.0,52,0.00,,,0.00,Wunderground v.1.15,2013-10-08 18:30:00,
2013-10-08 14:40:00,57.7,41.6,30.34,West,275,2.0,2.0,55,0.00,,,0.00,Wunderground v.1.15,2013-10-08 18:40:00,
2013-10-08 14:50:00,57.9,40.4,30.34,WNW,298,2.0,2.0,52,0.00,,,0.00,Wunderground v.1.15,2013-10-08 18:50:00,
2013-10-08 14:55:00,58.1,40.6,30.34,WNW,293,2.0,2.0,52,0.00,,,0.00,Wunderground v.1.15,2013-10-08 18:55:00,
2013-10-08 15:00:00,58.3,41.2,30.34,WNW,283,2.0,3.0,53,0.00,,,0.00,Wunderground v.1.15,2013-10-08 19:00:00,
2013-10-08 15:05:00,58.0,39.5,30.34,NW,316,3.0,3.0,50,0.00,,,0.00,Wunderground v.1.15,2013-10-08 19:05:00,
2013-10-08 15:10:00,57.8,39.8,30.34,WNW,282,3.0,5.0,51,0.00,,,0.00,Wunderground v.1.15,2013-10-08 19:10:00,
2013-10-08 15:15:00,57.8,40.8,30.34,West,268,2.0,5.0,53,0.00,,,0.00,Wunderground v.1.15,2013-10-08 19:15:00,
2013-10-08 15:20:00,57.9,40.4,30.34,SW,235,3.0,5.0,52,0.00,,,0.00,Wunderground v.1.15,2013-10-08 19:20:00,
2013-10-08 15:25:00,58.0,39.5,30.34,NW,311,3.0,5.0,50,0.00,,,0.00,Wunderground v.1.15,2013-10-08 19:25:00,
2013-10-08 15:30:00,57.9,40.9,30.34,WNW,292,3.0,3.0,53,0.00,,,0.00,Wunderground v.1.15,2013-10-08 19:30:00,
2013-10-08 15:40:00,58.0,41.0,30.35,NW,315,2.0,2.0,53,0.00,,,0.00,Wunderground v.1.15,2013-10-08 19:40:00,
2013-10-08 15:45:00,58.2,40.1,30.35,West,259,2.0,2.0,51,0.00,,,0.00,Wunderground v.1.15,2013-10-08 19:45:00,
2013-10-08 15:50:00,58.0,38.9,30.35,North,350,3.0,4.0,49,0.00,,,0.00,Wunderground v.1.15,2013-10-08 19:50:00,
2013-10-08 15:55:00,57.9,39.4,30.35,NW,306,3.0,4.0,50,0.00,,,0.00,Wunderground v.1.15,2013-10-08 19:55:00,
2013-10-08 16:00:00,58.0,38.9,30.36,WNW,298,3.0,3.0,49,0.00,,,0.00,Wunderground v.1.15,2013-10-08 20:00:00,
2013-10-08 16:10:00,57.7,39.2,30.35,NNW,334,4.0,10.0,50,0.00,,,0.00,Wunderground v.1.15,2013-10-08 20:10:00,
2013-10-08 16:15:00,57.5,38.5,30.36,NW,310,4.0,10.0,49,0.00,,,0.00,Wunderground v.1.15,2013-10-08 20:15:00,
2013-10-08 16:20:00,57.3,37.8,30.36,NNW,336,4.0,4.0,48,0.00,,,0.00,Wunderground v.1.15,2013-10-08 20:20:00,
2013-10-08 16:25:00,57.1,38.6,30.36,North,360,4.0,4.0,50,0.00,,,0.00,Wunderground v.1.15,2013-10-08 20:25:00,
2013-10-08 16:30:00,56.9,37.9,30.36,NW,315,4.0,4.0,49,0.00,,,0.00,Wunderground v.1.15,2013-10-08 20:30:00,
2013-10-08 16:35:00,56.7,37.2,30.36,NNW,329,5.0,5.0,48,0.00,,,0.00,Wunderground v.1.15,2013-10-08 20:35:00,
2013-10-08 16:40:00,56.5,37.6,30.37,WNW,288,4.0,4.0,49,0.00,,,0.00,Wunderground v.1.15,2013-10-08 20:40:00,
2013-10-08 16:45:00,56.4,36.9,30.37,NW,317,5.0,5.0,48,0.00,,,0.00,Wunderground v.1.15,2013-10-08 20:45:00,
2013-10-08 16:50:00,56.4,37.5,30.37,NNW,330,4.0,9.0,49,0.00,,,0.00,Wunderground v.1.15,2013-10-08 20:50:00,
2013-10-08 17:00:00,55.9,37.0,30.38,NNW,346,4.0,4.0,49,0.00,,,0.00,Wunderground v.1.15,2013-10-08 21:00:00,
2013-10-08 17:05:00,55.7,36.8,30.38,WNW,298,4.0,5.0,49,0.00,,,0.00,Wunderground v.1.15,2013-10-08 21:05:00,
2013-10-08 17:10:00,55.4,37.6,30.38,NW,319,4.0,4.0,51,0.00,,,0.00,Wunderground v.1.15,2013-10-08 21:10:00,
2013-10-08 17:15:00,55.3,38.0,30.39,West,279,2.0,4.0,52,0.00,,,0.00,Wunderground v.1.15,2013-10-08 21:15:00,
2013-10-08 17:20:00,55.1,38.7,30.39,NW,311,1.0,1.0,54,0.00,,,0.00,Wunderground v.1.15,2013-10-08 21:20:00,
2013-10-08 17:25:00,55.0,38.6,30.40,West,265,1.0,1.0,54,0.00,,,0.00,Wunderground v.1.15,2013-10-08 21:25:00,
2013-10-08 17:30:00,55.0,38.2,30.40,NNW,335,0.0,0.0,53,0.00,,,0.00,Wunderground v.1.15,2013-10-08 21:30:00,
2013-10-08 17:35:00,54.9,38.1,30.40,West,262,0.0,0.0,53,0.00,,,0.00,Wunderground v.1.15,2013-10-08 21:35:00,
2013-10-08 17:40:00,54.7,38.8,30.40,WSW,240,0.0,1.0,55,0.00,,,0.00,Wunderground v.1.15,2013-10-08 21:40:00,
2013-10-08 17:45:00,54.6,38.3,30.41,WSW,251,0.0,1.0,54,0.00,,,0.00,Wunderground v.1.15,2013-10-08 21:45:00,
2013-10-08 17:50:00,54.4,39.0,30.41,WSW,251,0.0,1.0,56,0.00,,,0.00,Wunderground v.1.15,2013-10-08 21:50:00,
2013-10-08 17:55:00,54.1,37.8,30.41,NW,311,0.0,1.0,54,0.00,,,0.00,Wunderground v.1.15,2013-10-08 21:55:00,
2013-10-08 18:00:00,53.6,37.8,30.41,SW,223,1.0,1.0,55,0.00,,,0.00,Wunderground v.1.15,2013-10-08 22:00:00,
2013-10-08 18:05:00,53.2,38.4,30.41,SW,223,0.0,1.0,57,0.00,,,0.00,Wunderground v.1.15,2013-10-08 22:05:00,
2013-10-08 18:10:00,52.7,38.3,30.41,SW,222,0.0,0.0,58,0.00,,,0.00,Wunderground v.1.15,2013-10-08 22:10:00,
2013-10-08 18:15:00,52.1,39.1,30.41,SSW,196,1.0,1.0,61,0.00,,,0.00,Wunderground v.1.15,2013-10-08 22:15:00,
2013-10-08 18:20:00,51.6,38.2,30.41,South,176,1.0,1.0,60,0.00,,,0.00,Wunderground v.1.15,2013-10-08 22:20:00,
2013-10-08 18:25:00,51.3,38.3,30.42,South,178,1.0,2.0,61,0.00,,,0.00,Wunderground v.1.15,2013-10-08 22:25:00,
2013-10-08 18:30:00,51.0,38.4,30.42,South,178,1.0,2.0,62,0.00,,,0.00,Wunderground v.1.15,2013-10-08 22:30:00,
2013-10-08 18:35:00,50.8,38.7,30.42,South,183,2.0,2.0,63,0.00,,,0.00,Wunderground v.1.15,2013-10-08 22:35:00,
2013-10-08 18:40:00,50.5,38.0,30.42,South,183,2.0,2.0,62,0.00,,,0.00,Wunderground v.1.15,2013-10-08 22:40:00,
2013-10-08 18:45:00,50.2,38.1,30.42,South,183,2.0,2.0,63,0.00,,,0.00,Wunderground v.1.15,2013-10-08 22:45:00,
2013-10-08 18:50:00,49.8,38.1,30.42,South,175,2.0,2.0,64,0.00,,,0.00,Wunderground v.1.15,2013-10-08 22:50:00,
2013-10-08 18:55:00,49.5,38.2,30.43,SSE,167,2.0,2.0,65,0.00,,,0.00,Wunderground v.1.15,2013-10-08 22:55:00,
2013-10-08 19:00:00,49.4,37.7,30.43,SSE,167,2.0,2.0,64,0.00,,,0.00,Wunderground v.1.15,2013-10-08 23:00:00,
2013-10-08 19:05:00,49.3,37.6,30.43,SSE,167,1.0,2.0,64,0.00,,,0.00,Wunderground v.1.15,2013-10-08 23:05:00,
2013-10-08 19:10:00,49.4,36.9,30.43,NW,306,0.0,0.0,62,0.00,,,0.00,Wunderground v.1.15,2013-10-08 23:10:00,
2013-10-08 19:15:00,49.7,36.8,30.43,NNW,329,0.0,0.0,61,0.00,,,0.00,Wunderground v.1.15,2013-10-08 23:15:00,
2013-10-08 19:20:00,49.9,37.8,30.43,North,360,0.0,0.0,63,0.00,,,0.00,Wunderground v.1.15,2013-10-08 23:20:00,
2013-10-08 19:25:00,49.9,37.8,30.42,North,360,0.0,0.0,63,0.00,,,0.00,Wunderground v.1.15,2013-10-08 23:25:00,
2013-10-08 19:35:00,49.5,38.2,30.43,SE,133,1.0,1.0,65,0.00,,,0.00,Wunderground v.1.15,2013-10-08 23:35:00,
2013-10-08 19:40:00,49.2,37.9,30.43,SSE,163,1.0,1.0,65,0.00,,,0.00,Wunderground v.1.15,2013-10-08 23:40:00,
2013-10-08 19:45:00,49.1,37.4,30.43,SE,144,2.0,3.0,64,0.00,,,0.00,Wunderground v.1.15,2013-10-08 23:45:00,
2013-10-08 19:50:00,49.1,37.4,30.44,SE,145,2.0,2.0,64,0.00,,,0.00,Wunderground v.1.15,2013-10-08 23:50:00,
2013-10-08 19:55:00,49.2,37.1,30.44,SE,136,1.0,2.0,63,0.00,,,0.00,Wunderground v.1.15,2013-10-08 23:55:00,
2013-10-08 20:00:00,49.4,36.5,30.44,NNE,18,0.0,2.0,61,0.00,,,0.00,Wunderground v.1.15,2013-10-09 00:00:00,
2013-10-08 20:10:00,49.7,36.4,30.44,NW,312,0.0,0.0,60,0.00,,,0.00,Wunderground v.1.15,2013-10-09 00:10:00,
2013-10-08 20:15:00,49.6,36.7,30.44,NE,38,0.0,0.0,61,0.00,,,0.00,Wunderground v.1.15,2013-10-09 00:15:00,
2013-10-08 20:20:00,49.4,37.7,30.44,South,182,0.0,0.0,64,0.00,,,0.00,Wunderground v.1.15,2013-10-09 00:20:00,
2013-10-08 20:25:00,48.9,37.3,30.44,South,187,1.0,2.0,64,0.00,,,0.00,Wunderground v.1.15,2013-10-09 00:25:00,
2013-10-08 20:30:00,48.6,38.1,30.45,South,188,1.0,1.0,67,0.00,,,0.00,Wunderground v.1.15,2013-10-09 00:30:00,
2013-10-08 20:35:00,48.5,37.7,30.45,SE,131,2.0,4.0,66,0.00,,,0.00,Wunderground v.1.15,2013-10-09 00:35:00,
2013-10-08 20:40:00,48.1,37.7,30.45,SE,140,2.0,4.0,67,0.00,,,0.00,Wunderground v.1.15,2013-10-09 00:40:00,
2013-10-08 20:45:00,47.9,38.2,30.45,SSE,148,2.0,4.0,69,0.00,,,0.00,Wunderground v.1.15,2013-10-09 00:45:00,
2013-10-08 20:50:00,48.1,36.9,30.46,SSW,192,2.0,2.0,65,0.00,,,0.00,Wunderground v.1.15,2013-10-09 00:50:00,
2013-10-08 20:55:00,48.2,37.0,30.45,South,170,2.0,2.0,65,0.00,,,0.00,Wunderground v.1.15,2013-10-09 00:55:00,
2013-10-08 21:00:00,48.2,37.4,30.45,South,170,1.0,2.0,66,0.00,,,0.00,Wunderground v.1.15,2013-10-09 01:00:00,
2013-10-08 21:05:00,48.0,37.6,30.45,SE,127,0.0,2.0,67,0.00,,,0.00,Wunderground v.1.15,2013-10-09 01:05:00,
2013-10-08 21:10:00,47.8,37.4,30.45,South,172,1.0,2.0,67,0.00,,,0.00,Wunderground v.1.15,2013-10-09 01:10:00,
2013-10-08 21:15:00,47.6,36.8,30.45,South,169,1.0,2.0,66,0.00,,,0.00,Wunderground v.1.15,2013-10-09 01:15:00,
2013-10-08 21:20:00,47.5,37.5,30.46,South,169,0.0,0.0,68,0.00,,,0.00,Wunderground v.1.15,2013-10-09 01:20:00,
2013-10-08 21:25:00,47.3,37.6,30.46,South,169,0.0,1.0,69,0.00,,,0.00,Wunderground v.1.15,2013-10-09 01:25:00,
2013-10-08 21:30:00,47.0,37.0,30.46,South,169,0.0,0.0,68,0.00,,,0.00,Wunderground v.1.15,2013-10-09 01:30:00,
2013-10-08 21:35:00,47.0,37.4,30.46,South,169,0.0,0.0,69,0.00,,,0.00,Wunderground v.1.15,2013-10-09 01:35:00,
2013-10-08 21:40:00,47.0,37.0,30.47,South,169,1.0,3.0,68,0.00,,,0.00,Wunderground v.1.15,2013-10-09 01:40:00,
2013-10-08 21:45:00,46.7,36.7,30.47,South,169,2.0,3.0,68,0.00,,,0.00,Wunderground v.1.15,2013-10-09 01:45:00,
2013-10-08 21:50:00,46.4,37.1,30.47,South,169,2.0,2.0,70,0.00,,,0.00,Wunderground v.1.15,2013-10-09 01:50:00,
2013-10-08 21:55:00,46.2,37.7,30.48,South,169,2.0,2.0,72,0.00,,,0.00,Wunderground v.1.15,2013-10-09 01:55:00,
2013-10-08 22:00:00,46.0,36.8,30.48,South,169,1.0,1.0,70,0.00,,,0.00,Wunderground v.1.15,2013-10-09 02:00:00,
2013-10-08 22:05:00,46.0,36.8,30.48,South,169,1.0,2.0,70,0.00,,,0.00,Wunderground v.1.15,2013-10-09 02:05:00,
2013-10-08 22:10:00,46.2,37.0,30.48,South,169,1.0,2.0,70,0.00,,,0.00,Wunderground v.1.15,2013-10-09 02:10:00,
2013-10-08 22:15:00,46.3,36.7,30.48,South,169,2.0,2.0,69,0.00,,,0.00,Wunderground v.1.15,2013-10-09 02:15:00,
2013-10-08 22:20:00,46.6,36.6,30.49,South,169,2.0,2.0,68,0.00,,,0.00,Wunderground v.1.15,2013-10-09 02:20:00,
2013-10-08 22:25:00,46.8,36.8,30.49,South,169,1.0,2.0,68,0.00,,,0.00,Wunderground v.1.15,2013-10-09 02:25:00,
2013-10-08 22:30:00,46.9,36.9,30.49,South,169,1.0,1.0,68,0.00,,,0.00,Wunderground v.1.15,2013-10-09 02:30:00,
2013-10-08 22:35:00,46.6,37.3,30.49,South,169,1.0,3.0,70,0.00,,,0.00,Wunderground v.1.15,2013-10-09 02:35:00,
2013-10-08 22:40:00,45.9,38.1,30.49,South,169,1.0,1.0,74,0.00,,,0.00,Wunderground v.1.15,2013-10-09 02:40:00,
2013-10-08 22:45:00,45.2,37.4,30.50,South,169,2.0,2.0,74,0.00,,,0.00,Wunderground v.1.15,2013-10-09 02:45:00,
2013-10-08 22:50:00,44.9,36.8,30.50,South,169,2.0,2.0,73,0.00,,,0.00,Wunderground v.1.15,2013-10-09 02:50:00,
2013-10-08 22:55:00,45.2,36.0,30.50,South,169,2.0,3.0,70,0.00,,,0.00,Wunderground v.1.15,2013-10-09 02:55:00,
2013-10-08 23:00:00,46.0,36.0,30.50,South,169,2.0,2.0,68,0.00,,,0.00,Wunderground v.1.15,2013-10-09 03:00:00,
2013-10-08 23:05:00,46.5,36.1,30.50,SE,146,2.0,2.0,67,0.00,,,0.00,Wunderground v.1.15,2013-10-09 03:05:00,
2013-10-08 23:15:00,46.7,36.3,30.50,SSE,148,1.0,2.0,67,0.00,,,0.00,Wunderground v.1.15,2013-10-09 03:15:00,
2013-10-08 23:20:00,46.8,36.4,30.50,SE,127,1.0,1.0,67,0.00,,,0.00,Wunderground v.1.15,2013-10-09 03:20:00,
2013-10-08 23:25:00,46.9,36.5,30.50,SE,136,1.0,1.0,67,0.00,,,0.00,Wunderground v.1.15,2013-10-09 03:25:00,
2013-10-08 23:30:00,46.9,36.1,30.50,SE,129,1.0,1.0,66,0.00,,,0.00,Wunderground v.1.15,2013-10-09 03:30:00,
2013-10-08 23:40:00,47.1,35.9,30.51,SE,129,0.0,0.0,65,0.00,,,0.00,Wunderground v.1.15,2013-10-09 03:40:00,
2013-10-08 23:45:00,47.1,35.9,30.51,SE,146,1.0,1.0,65,0.00,,,0.00,Wunderground v.1.15,2013-10-09 03:45:00,
2013-10-08 23:50:00,47.2,36.0,30.51,SE,132,1.0,1.0,65,0.00,,,0.00,Wunderground v.1.15,2013-10-09 03:50:00,
2013-10-08 23:55:00,47.0,35.8,30.51,SE,132,0.0,1.0,65,0.00,,,0.00,Wunderground v.1.15,2013-10-09 03:55:00,